SCP
0 0 0 0 0 0 0 0 0 0 0 0 0 0 0 0 0 0 0 0 0 0
0 0 0 0 0 0 0 0 0 0 0 0 0 0 0 0 0 0 0 0 0 0
0 0 0 0 0 0 0 0 0 0 0 0 0 0 0 0 0 0 0 0 0 0
0 0 0 0 0 0 0 0 0 0 0 0 0 0 0 0 0 0 0 0 0 0
0 0 0 0 0 0 0 0 0 0 0 0 0 0 0 0 0 0 0 0 0 0
0 0 0 0 0 0 0 0 0 0 0 0 0 0 0 0 0 0 0 0 0 0
0 0 0 0 0 0 0 0 0 0 0 0 0 0 0 0 0 0 0 0 0 0
0 0 0 0 0 0 0 0 0 0 0 0 0 0 0 0 0 0 0 0 0 0
0 0 0 0 0 0 0 0 0 0 0 0 0 0 0 0 0 0 0 0 0 0
0 0 0 0 0 0 0 0 0 0 0 0 0 0 0 0 0 0 0 0 0 0
0 0 0 0 0 0 0 0 0 0 0 0 0 0 0 0 0 0 0 0 0 0
0 0 0 0 0 0 0 0 0 0 0 0 0 0 0 0 0 0 0 0 0 0
0 0 0 0 0 0 0 0 0 0 0 0 0 0 0 0 0 0 0 0 0 0
0 0 0 0 0 0 0 0 0 0 0 0 0 0 0 0 0 0 0 0 0 0
Wind_Speed_500mb
61 60 61 60 57 59 59 51 49 50 51 48 46 49 44 45 45 46 44 41 37 34
50 52 55 56 52 49 47 48 48 48 50 46 46 42 46 46 46 43 37 42 38 39
45 45 42 40 37 35 37 41 42 42 45 46 46 47 44 43 45 41 40 36 37 33
35 34 32 31 32 31 31 32 36 40 45 45 39 43 43 44 40 40 36 32 27 26
31 30 31 32 31 31 33 36 38 38 41 41 44 46 45 40 36 30 28 23 23 23
31 32 33 34 35 37 37 38 42 43 47 47 44 42 37 32 28 25 23 23 22 20
34 34 35 37 39 41 41 42 43 44 44 42 38 34 32 29 26 25 22 19 18 19
39 38 38 40 41 42 43 42 42 41 40 39 38 35 31 28 26 23 21 21 21 21
48 45 42 43 44 46 46 45 44 44 43 43 39 37 34 29 27 26 25 24 24 25
54 49 49 49 49 50 50 49 49 47 46 43 40 37 32 30 28 27 26 26 26 25
62 60 58 56 55 55 55 53 52 51 48 45 40 38 35 32 29 29 30 28 25 23
74 68 64 64 62 61 58 58 56 53 50 46 42 39 36 34 34 33 31 27 24 23
80 75 72 67 65 64 62 59 58 55 51 48 45 40 37 35 35 33 29 26 26 28
86 79 72 68 68 66 65 63 59 57 55 54 48 39 38 38 36 33 32 27 25 25
Wind_Direction_500mb
240 244 248 251 255 261 264 258 252 250 249 251 256 251 254 256 266 269 270 276 273 267
242 248 255 257 256 254 251 249 248 247 246 251 253 250 252 252 260 269 254 267 263 259
248 248 248 249 249 249 247 245 245 245 247 247 254 248 244 254 256 257 245 253 248 246
241 247 248 248 249 245 241 237 232 239 244 245 242 245 251 249 243 241 235 235 236 243
248 248 248 247 242 236 230 234 238 240 244 246 249 247 242 238 232 230 232 236 243 252
248 248 247 245 241 239 238 238 239 238 240 241 239 235 229 227 227 230 237 243 252 263
253 249 244 241 238 238 238 240 240 237 237 235 230 223 218 219 223 227 231 238 246 256
256 248 246 243 240 238 237 236 235 234 228 221 216 217 217 220 221 225 231 239 247 255
254 245 243 243 242 239 235 230 225 219 216 216 215 218 222 219 221 228 236 242 247 253
249 244 241 238 236 232 228 225 221 219 219 220 222 224 224 224 227 233 240 246 251 257
247 243 237 235 233 229 225 223 221 221 222 223 223 225 224 226 229 241 245 245 246 248
244 241 236 234 230 227 224 222 221 221 222 223 223 222 222 234 237 232 232 234 238 243
243 239 235 232 229 227 224 223 221 220 220 221 222 223 234 226 223 227 227 229 235 244
242 238 235 232 229 226 223 220 219 220 219 220 222 224 219 217 221 224 229 230 235 248
Wind_Speed_850mb
61 60 61 60 57 59 59 51 49 50 51 48 46 49 44 45 45 46 44 41 37 34
50 52 55 56 52 49 47 48 48 48 50 46 46 42 46 46 46 43 37 42 38 39
45 45 42 40 37 35 37 41 42 42 45 46 46 47 44 43 45 41 40 36 37 33
35 34 32 31 32 31 31 32 36 40 45 45 39 43 43 44 40 40 36 32 27 26
31 30 31 32 31 31 33 36 38 38 41 41 44 46 45 40 36 30 28 23 23 23
31 32 33 34 35 37 37 38 42 43 47 47 44 42 37 32 28 25 23 23 22 20
34 34 35 37 39 41 41 42 43 44 44 42 38 34 32 29 26 25 22 19 18 19
39 38 38 40 41 42 43 42 42 41 40 39 38 35 31 28 26 23 21 21 21 21
48 45 42 43 44 46 46 45 44 44 43 43 39 37 34 29 27 26 25 24 24 25
54 49 49 49 49 50 50 49 49 47 46 43 40 37 32 30 28 27 26 26 26 25
62 60 58 56 55 55 55 53 52 51 48 45 40 38 35 32 29 29 30 28 25 23
74 68 64 64 62 61 58 58 56 53 50 46 42 39 36 34 34 33 31 27 24 23
80 75 72 67 65 64 62 59 58 55 51 48 45 40 37 35 35 33 29 26 26 28
86 79 72 68 68 66 65 63 59 57 55 54 48 39 38 38 36 33 32 27 25 25
Wind_Direction_850mb
240 244 248 251 255 261 264 258 252 250 249 251 256 251 254 256 266 269 270 276 273 267
242 248 255 257 256 254 251 249 248 247 246 251 253 250 252 252 260 269 254 267 263 259
248 248 248 249 249 249 247 245 245 245 247 247 254 248 244 254 256 257 245 253 248 246
241 247 248 248 249 245 241 237 232 239 244 245 242 245 251 249 243 241 235 235 236 243
248 248 248 247 242 236 230 234 238 240 244 246 249 247 242 238 232 230 232 236 243 252
248 248 247 245 241 239 238 238 239 238 240 241 239 235 229 227 227 230 237 243 252 263
253 249 244 241 238 238 238 240 240 237 237 235 230 223 218 219 223 227 231 238 246 256
256 248 246 243 240 238 237 236 235 234 228 221 216 217 217 220 221 225 231 239 247 255
254 245 243 243 242 239 235 230 225 219 216 216 215 218 222 219 221 228 236 242 247 253
249 244 241 238 236 232 228 225 221 219 219 220 222 224 224 224 227 233 240 246 251 257
247 243 237 235 233 229 225 223 221 221 222 223 223 225 224 226 229 241 245 245 246 248
244 241 236 234 230 227 224 222 221 221 222 223 223 222 222 234 237 232 232 234 238 243
243 239 235 232 229 227 224 223 221 220 220 221 222 223 234 226 223 227 227 229 235 244
242 238 235 232 229 226 223 220 219 220 219 220 222 224 219 217 221 224 229 230 235 248